This is the latest recevied weather packets stored in our database for station/object DB8NZ-22. If no packets are shown the sender has not sent any weather packets the latest 1 day(s).
| Time | Temp. | Humidity | Pressure | Rain* | Wind** | Luminosity | Snow |
|---|---|---|---|---|---|---|---|
| 1777705828 | 15.56° C | 48% | 1023.8 hPa | - | - | - | - |
| 1777704928 | 14.44° C | 49% | 1024 hPa | - | - | - | - |
| 1777704028 | 13.33° C | 51% | 1024 hPa | - | - | - | - |
| 1777703128 | 12.78° C | 52% | 1024.1 hPa | - | - | - | - |
| 1777702228 | 11.67° C | 52% | 1024.1 hPa | - | - | - | - |
| 1777701327 | 11.11° C | 52% | 1024.1 hPa | - | - | - | - |
| 1777700427 | 10° C | 54% | 1024.1 hPa | - | - | - | - |
| 1777699527 | 8.89° C | 55% | 1024.1 hPa | - | - | - | - |
| 1777698627 | 7.78° C | 55% | 1024.2 hPa | - | - | - | - |
| 1777697727 | 7.22° C | 55% | 1024.4 hPa | - | - | - | - |
| 1777696827 | 6.67° C | 55% | 1024.3 hPa | - | - | - | - |
| 1777695927 | 6.67° C | 56% | 1024.2 hPa | - | - | - | - |
| 1777695428 | 6.67° C | 55% | 1024.3 hPa | - | - | - | - |
| 1777694528 | 6.67° C | 55% | 1024.4 hPa | - | - | - | - |
| 1777693627 | 6.67° C | 55% | 1024.4 hPa | - | - | - | - |
| 1777692727 | 7.22° C | 55% | 1024.4 hPa | - | - | - | - |
| 1777691827 | 7.22° C | 54% | 1024.5 hPa | - | - | - | - |
| 1777690927 | 7.22° C | 54% | 1024.7 hPa | - | - | - | - |
| 1777688227 | 7.78° C | 53% | 1024.7 hPa | - | - | - | - |
| 1777687326 | 8.33° C | 52% | 1024.9 hPa | - | - | - | - |
* Rain since midnight (hover to see other rain measurements)
** Current wind speed in m/s (hover to see current wind gust speed)